Morris, MN

11:25 PM CDT on August 25, 2016 (GMT -0500)
Morris Municipal

Weather History for KMOX - October, 2012

Change the Weather History Date:

Thursday, October 4, 2012

  Actual Average Record
Temperature  
Mean Temperature 50 °F -  
Max Temperature 64 °F 62 °F 84 °F (2011)
Min Temperature 35 °F 38 °F 24 °F (2004)
Degree Days  
Heating Degree Days 16    
Moisture  
Dew Point 34 °F    
Average Humidity 73    
Maximum Humidity 93    
Minimum Humidity 32    
Precipitation  
Precipitation 0.00 in - - ()
Sea Level Pressure  
Sea Level Pressure 30.01 in    
Wind  
Wind Speed 24 mph (WNW)    
Max Wind Speed 36 mph    
Max Gust Speed 48 mph    
Visibility 9 miles    
Events Rain    
Averages and records for this station are not official NWS values.
T = Trace of Precipitation, MM = Missing Value Source: NWS Daily Summary

Daily Weather History Graph

Daily Weather History Graph

Search for Another Location

Airport or City:

Trip Planner

Search our weather history database for the weather conditions in past years. The results will help you decide how hot, cold, wet, or windy it might be!

Date:

Astronomy

Oct. 04, 2012 Rise Set
Actual Time 7:26 AM CDT 6:57 PM CDT
Civil Twilight 6:56 AM CDT 7:26 PM CDT
Nautical Twilight 6:22 AM CDT 8:01 PM CDT
Astronomical Twilight 5:47 AM CDT 8:35 PM CDT
Moon 9:20 PM CDT (10/4) 11:58 AM CDT (10/4)
Length of Visible Light 12h 30m
Length of Day
11h 30m
Waning Gibbous, 82% of the Moon is Illuminated
Oct 4
Waning Gibbous
Oct 8
Last Quarter
Oct 15
New
Oct 21
First Quarter
Oct 29
Full

Hourly Weather History & Observations

Time (CDT) Temp. Windchill Dew Point Humidity Pressure Visibility Wind Dir Wind Speed Gust Speed Precip Events Conditions
12:10 AM 64.4 °F - 33.8 °F 32% 29.67 in 10.0 mi SE 11.5 mph - N/A   Clear
12:30 AM 64.4 °F - 35.6 °F 34% 29.67 in 10.0 mi SSE 13.8 mph 20.7 mph N/A   Clear
12:50 AM 57.2 °F - 37.4 °F 48% 29.67 in 10.0 mi West 12.7 mph 17.3 mph N/A   Clear
1:10 AM 53.6 °F - 42.8 °F 67% 29.67 in 10.0 mi WNW 17.3 mph 23.0 mph N/A   Clear
1:30 AM 50.0 °F - 41.0 °F 71% 29.68 in 10.0 mi WNW 24.2 mph 28.8 mph N/A   Clear
1:50 AM 48.2 °F - 41.0 °F 76% 29.69 in 10.0 mi WNW 28.8 mph 34.5 mph N/A   Clear
2:10 AM 46.4 °F 36.7 °F 39.2 °F 76% 29.71 in 10.0 mi WNW 33.4 mph 38.0 mph N/A   Clear
2:30 AM 46.4 °F 36.5 °F 39.2 °F 76% 29.73 in 10.0 mi WNW 34.5 mph 42.6 mph N/A   Scattered Clouds
2:50 AM 46.4 °F 37.5 °F 39.2 °F 76% 29.75 in 10.0 mi WNW 27.6 mph 42.6 mph N/A   Mostly Cloudy
3:10 AM 46.4 °F 36.7 °F 39.2 °F 76% 29.76 in 10.0 mi WNW 33.4 mph 43.7 mph N/A   Overcast
3:30 AM 44.6 °F 33.9 °F 39.2 °F 81% 29.79 in 10.0 mi WNW 35.7 mph 42.6 mph N/A   Overcast
3:50 AM 44.6 °F 34.2 °F 39.2 °F 81% 29.80 in 10.0 mi WNW 33.4 mph 41.4 mph N/A   Overcast
4:10 AM 42.8 °F 31.4 °F 39.2 °F 87% 29.80 in 4.0 mi WNW 35.7 mph 44.9 mph N/A   Overcast
4:30 AM 42.8 °F 32.3 °F 39.2 °F 87% 29.82 in 4.0 mi WNW 29.9 mph 46.0 mph N/A Rain Light Rain
4:50 AM 41.0 °F 29.3 °F 37.4 °F 87% 29.84 in 4.0 mi WNW 33.4 mph 41.4 mph N/A   Light Drizzle
5:10 AM 39.2 °F 26.8 °F 35.6 °F 87% 29.86 in 5.0 mi WNW 33.4 mph 43.7 mph N/A   Overcast
5:30 AM 37.4 °F 24.6 °F 35.6 °F 93% 29.87 in 10.0 mi WNW 32.2 mph 48.3 mph N/A   Overcast
5:50 AM 37.4 °F 24.6 °F 33.8 °F 87% 29.88 in 10.0 mi WNW 32.2 mph 42.6 mph N/A   Overcast
6:10 AM 37.4 °F 24.0 °F 33.8 °F 87% 29.89 in 10.0 mi NW 35.7 mph 42.6 mph N/A   Overcast
6:30 AM 37.4 °F 24.8 °F 33.8 °F 87% 29.90 in 10.0 mi NW 31.1 mph 42.6 mph N/A   Overcast
6:50 AM 37.4 °F 25.4 °F 33.8 °F 87% 29.92 in 10.0 mi NW 27.6 mph 40.3 mph N/A   Overcast
7:10 AM 37.4 °F 24.8 °F 33.8 °F 87% 29.93 in 10.0 mi NW 31.1 mph 39.1 mph N/A   Overcast
7:35 AM 37.4 °F 25.6 °F 33.8 °F 87% 29.94 in 7.0 mi WNW 26.5 mph 36.8 mph N/A   Overcast
7:50 AM 35.6 °F 23.7 °F 32.0 °F 87% - 1.5 mi WNW 24.2 mph 36.8 mph N/A   Overcast
8:09 AM 35.6 °F 23.2 °F 33.8 °F 93% 29.97 in 1.0 mi WNW 26.5 mph 35.7 mph N/A   Unknown
8:30 AM 35.6 °F 22.7 °F 33.8 °F 93% 29.98 in 2.5 mi WNW 28.8 mph 34.5 mph N/A   Overcast
8:50 AM 37.4 °F 26.4 °F 33.8 °F 87% 29.99 in 7.0 mi WNW 23.0 mph 33.4 mph N/A   Overcast
9:10 AM 37.4 °F 24.4 °F 33.8 °F 87% 30.00 in 10.0 mi WNW 33.4 mph 41.4 mph N/A   Overcast
9:30 AM 37.4 °F 24.8 °F 33.8 °F 87% 30.01 in 10.0 mi NW 31.1 mph 39.1 mph N/A   Overcast
9:50 AM 37.4 °F 24.8 °F 33.8 °F 87% 30.02 in 10.0 mi NW 31.1 mph 39.1 mph N/A   Overcast
10:10 AM 39.2 °F 27.8 °F 33.8 °F 81% 30.04 in 10.0 mi WNW 27.6 mph 40.3 mph N/A   Overcast
10:30 AM 39.2 °F 27.2 °F 33.8 °F 81% 30.04 in 7.0 mi NW 31.1 mph 41.4 mph N/A   Overcast
10:50 AM 39.2 °F 27.8 °F 33.8 °F 81% 30.06 in 7.0 mi NW 27.6 mph 36.8 mph N/A   Overcast
11:30 AM 41.0 °F 29.7 °F 33.8 °F 76% 30.07 in 10.0 mi NW 31.1 mph 40.3 mph N/A   Overcast
11:50 AM 41.0 °F 29.8 °F 33.8 °F 76% 30.07 in 10.0 mi NW 29.9 mph 39.1 mph N/A   Overcast
12:10 PM 42.8 °F 32.1 °F 32.0 °F 66% 30.08 in 10.0 mi NW 31.1 mph 39.1 mph N/A   Overcast
12:30 PM 42.8 °F 32.5 °F 32.0 °F 66% 30.09 in 10.0 mi NW 28.8 mph 40.3 mph N/A   Overcast
12:50 PM 42.8 °F 32.3 °F 32.0 °F 66% 30.09 in 10.0 mi WNW 29.9 mph 36.8 mph N/A   Overcast
1:10 PM 42.8 °F 32.5 °F 32.0 °F 66% 30.10 in 10.0 mi WNW 28.8 mph 38.0 mph N/A   Overcast
1:30 PM 44.6 °F 34.7 °F 30.2 °F 57% 30.10 in 10.0 mi WNW 29.9 mph 35.7 mph N/A   Overcast
1:50 PM 42.8 °F 32.3 °F 30.2 °F 61% 30.12 in 10.0 mi NW 29.9 mph 34.5 mph N/A   Overcast
2:10 PM 42.8 °F 32.3 °F 30.2 °F 61% 30.11 in 10.0 mi NW 29.9 mph 36.8 mph N/A   Overcast
2:30 PM 44.6 °F 34.7 °F 32.0 °F 61% 30.12 in 10.0 mi NW 29.9 mph 36.8 mph N/A   Overcast
2:50 PM 44.6 °F 34.6 °F 30.2 °F 57% 30.12 in 10.0 mi NW 31.1 mph 39.1 mph N/A   Overcast
3:10 PM 44.6 °F 35.3 °F 30.2 °F 57% 30.13 in 10.0 mi NW 26.5 mph 38.0 mph N/A   Overcast
3:30 PM 44.6 °F 34.9 °F 30.2 °F 57% 30.13 in 10.0 mi NW 28.8 mph 34.5 mph N/A   Overcast
3:50 PM 44.6 °F 35.1 °F 32.0 °F 61% 30.13 in 10.0 mi NW 27.6 mph 39.1 mph N/A   Overcast
4:10 PM 44.6 °F 35.9 °F 30.2 °F 57% 30.13 in 10.0 mi NW 23.0 mph 38.0 mph N/A   Overcast
4:30 PM 44.6 °F 35.5 °F 30.2 °F 57% 30.14 in 10.0 mi NW 25.3 mph 35.7 mph N/A   Overcast
4:50 PM 44.6 °F 35.5 °F 30.2 °F 57% 30.14 in 10.0 mi NW 25.3 mph 32.2 mph N/A   Overcast
5:10 PM 44.6 °F 35.9 °F 30.2 °F 57% 30.14 in 10.0 mi NW 23.0 mph 32.2 mph N/A   Overcast
5:30 PM 44.6 °F 35.7 °F 32.0 °F 61% 30.15 in 10.0 mi WNW 24.2 mph 28.8 mph N/A   Overcast
5:50 PM 44.6 °F 34.9 °F 30.2 °F 57% 30.15 in 10.0 mi NW 28.8 mph - N/A   Overcast
6:10 PM 44.6 °F 36.9 °F 30.2 °F 57% 30.16 in 10.0 mi WNW 18.4 mph 31.1 mph N/A   Overcast
6:30 PM 44.6 °F 35.5 °F 33.8 °F 66% 30.16 in 10.0 mi WNW 25.3 mph 31.1 mph N/A   Overcast
6:50 PM 41.0 °F 31.6 °F 35.6 °F 81% 30.17 in 5.0 mi NW 20.7 mph 35.7 mph N/A   Haze
7:10 PM 39.2 °F 31.2 °F 35.6 °F 87% 30.17 in 10.0 mi WNW 13.8 mph - N/A   Mostly Cloudy
7:30 PM 41.0 °F 31.9 °F 33.8 °F 76% 30.17 in 10.0 mi WNW 19.6 mph 23.0 mph N/A   Overcast
8:10 PM 41.0 °F 31.9 °F 33.8 °F 76% 30.18 in 10.0 mi WNW 19.6 mph 27.6 mph N/A   Mostly Cloudy
8:30 PM 39.2 °F 29.6 °F 32.0 °F 75% 30.18 in 10.0 mi WNW 19.6 mph 25.3 mph N/A   Overcast
8:50 PM 39.2 °F 30.5 °F 33.8 °F 81% 30.19 in 10.0 mi NW 16.1 mph - N/A   Mostly Cloudy
9:10 PM 39.2 °F 29.8 °F 33.8 °F 81% 30.19 in 10.0 mi NW 18.4 mph 21.9 mph N/A   Overcast
9:30 PM 39.2 °F 30.5 °F 33.8 °F 81% 30.19 in 10.0 mi WNW 16.1 mph - N/A   Mostly Cloudy
9:50 PM 39.2 °F 30.5 °F 33.8 °F 81% 30.20 in 10.0 mi WNW 16.1 mph 19.6 mph N/A   Mostly Cloudy
10:10 PM 39.2 °F 30.8 °F 32.0 °F 75% 30.19 in 10.0 mi NW 15.0 mph 20.7 mph N/A   Overcast
10:30 PM 39.2 °F 31.2 °F 33.8 °F 81% 30.20 in 10.0 mi WNW 13.8 mph - N/A   Overcast
10:50 PM 41.0 °F 32.8 °F 33.8 °F 76% 30.20 in 10.0 mi WNW 16.1 mph 20.7 mph N/A   Overcast
11:10 PM 41.0 °F 32.8 °F 33.8 °F 76% 30.20 in 10.0 mi WNW 16.1 mph - N/A   Overcast
11:30 PM 41.0 °F 32.5 °F 30.2 °F 65% 30.20 in 10.0 mi WNW 17.3 mph 23.0 mph N/A   Overcast
11:50 PM 41.0 °F 32.8 °F 30.2 °F 65% 30.19 in 10.0 mi WNW 16.1 mph 28.8 mph N/A   Overcast